Location: Ao Por, Phuket, Thailand
(8.0591°N, 98.4362°E)
Time: 02:37:23
(UTC+07:00)

N. Korean satellite - Pass Details

Date: 02 October 2021
Orbit: 450 x 495 km, 97.3° (Epoch: 23 October)

Event Time Altitude Azimuth Distance (km) Brightness Sun altitude
Rises 05:49:21 0° 355° (N) 2,555 10.1 -7.0°
Reaches altitude 10° 05:51:35 10° 344° (NNW) 1,680 9.1 -6.5°
Maximum altitude 05:54:47 30° 282° (WNW) 908 7.4 -5.7°
Drops below altitude 10° 05:58:00 10° 220° (SW) 1,688 9.0 -4.9°
Sets 06:00:14 0° 209° (SSW) 2,571 10.0 -4.3°
